Location: Unspecified
(0.0000°N, 0.0000°E)
Time: 17:49:48
(UTC+01:00)

HO-68 - Visible Passes

Search period start: 27 February 2015 00:00
Search period end: 09 March 2015 00:00
Orbit: 1193 x 1204 km, 100.2° (Epoch: 27 February)

Date Brightness Start Highest point End Pass type
(mag) Time Alt. Az. Time Alt. Az. Time Alt. Az.
27 Feb?22:01:48NNW22:01:48NNW21:46:37Svisible
28 Feb?21:44:30NNW21:44:30NNW21:29:12SSEvisible
01 Mar ? 21:27:11 10° N 21:27:11 10° N 21:27:11 10° N visible
02 Mar ? 21:09:54 10° N 21:09:54 10° N 21:09:58 10° N visible
03 Mar?22:42:03NW22:42:03NW22:26:21SSWvisible
04 Mar?22:24:46NNW22:24:46NNW22:08:56Svisible
05 Mar?22:07:29NNW22:07:29NNW21:51:30Svisible
06 Mar ? 21:50:12 11° NNW 21:50:12 11° NNW 21:50:30 10° NNW visible
07 Mar ? 21:32:56 13° N 21:32:56 13° N 21:33:35 10° N visible
08 Mar ? 21:15:40 14° N 21:15:40 14° N 21:16:27 10° N visible
